Location: O'Brien
(30.0517°N, 82.9900°W)
Time: 08:42:25
(UTC-05:00)

ISS - Pass Details

Date: 22 November 2019
Orbit: 411 x 421 km, 51.6° (Epoch: 11 December)

Event Time Altitude Azimuth Distance (km) Brightness Sun altitude
Rises 18:32:18 0° 248° (WSW) 2,340 2.1 -12.9°
Reaches altitude 10° 18:34:38 10° 262° (W) 1,483 0.5 -13.4°
Maximum altitude 18:37:26 25° 320° (NW) 886 -1.9 -14.0°
Enters shadow 18:39:59 12° 15° (NNE) 1,399 -1.4 -14.5°
